HEBOWX Weather Reports


Display with metric or nautical units.
time (UTC)temp
F
wind
direction
speed
MPH
gust
MPH
rain 1hr
in
rain 24hr
in
rain mn
in
humidity
%
barometer
mb
20260506113531 48 0 0.0 5.0 0.00 0.00 0.00 62 1015.3
20260506113031 48 289 0.0 5.0 0.00 0.00 0.00 62 1015.3
20260506112533 47 273 1.0 5.0 0.00 0.00 0.00 63 1015.2
20260506112031 47 277 2.0 4.0 0.00 0.00 0.00 64 1015.2
20260506111531 46 260 3.0 4.0 0.00 0.00 0.00 67 1015.2
20260506111031 46 0 0.0 0.0 0.00 0.00 0.00 68 1015.1
20260506110531 46 0 0.0 0.0 0.00 0.00 0.00 69 1015.1
20260506110031 46 0 0.0 0.0 0.00 0.00 0.00 68 1015.1
20260506105533 46 0 0.0 0.0 0.00 0.00 0.00 69 1015.0
20260506105032 46 0 0.0 0.0 0.00 0.00 0.00 69 1015.0
20260506104531 46 0 0.0 0.0 0.00 0.00 0.00 69 1015.0
20260506104031 47 0 0.0 0.0 0.00 0.00 0.00 69 1014.8
20260506103531 47 0 0.0 0.0 0.00 0.00 0.00 69 1014.7
20260506103030 47 0 0.0 0.0 0.00 0.00 0.00 69 1014.8
20260506102536 47 0 0.0 0.0 0.00 0.00 0.00 68 1014.6
20260506102031 47 0 0.0 4.0 0.00 0.00 0.00 68 1014.6
20260506101532 47 0 0.0 4.0 0.00 0.00 0.00 69 1014.7
20260506101031 47 261 0.0 4.0 0.00 0.00 0.00 70 1014.6
20260506100530 48 266 2.0 4.0 0.00 0.00 0.00 69 1014.6
20260506100032 48 271 2.0 2.0 0.00 0.00 0.00 68 1014.6
20260506095536 49 0 0.0 0.0 0.00 0.00 0.00 66 1014.5
20260506095030 50 0 0.0 0.0 0.00 0.00 0.00 63 1014.5
20260506094032 50 0 0.0 0.0 0.00 0.00 0.00 66 1014.4
20260506093531 50 0 0.0 0.0 0.00 0.00 0.00 66 1014.3
20260506093031 50 0 0.0 0.0 0.00 0.00 0.00 66 1014.4
20260506092533 50 0 0.0 0.0 0.00 0.00 0.00 66 1014.4
20260506092030 51 0 0.0 0.0 0.00 0.00 0.00 65 1014.3
20260506091530 51 0 0.0 0.0 0.00 0.00 0.00 64 1014.3
20260506091032 51 0 0.0 0.0 0.00 0.00 0.00 64 1014.3
20260506090530 51 0 0.0 0.0 0.00 0.00 0.00 63 1014.3
20260506090030 51 0 0.0 0.0 0.00 0.00 0.00 65 1014.3
20260506085531 51 0 0.0 0.0 0.00 0.00 0.00 65 1014.4
20260506085030 51 0 0.0 0.0 0.00 0.00 0.00 64 1014.3
20260506084530 51 0 0.0 2.0 0.00 0.00 0.00 62 1014.4
20260506084031 51 0 0.0 2.0 0.00 0.00 0.00 62 1014.4
20260506083530 51 204 0.0 2.0 0.00 0.00 0.00 61 1014.4
20260506083030 51 0 0.0 0.0 0.00 0.00 0.00 64 1014.4
20260506082530 51 0 0.0 0.0 0.00 0.00 0.00 64 1014.4
20260506082031 51 0 0.0 0.0 0.00 0.00 0.00 63 1014.4
20260506081532 51 0 0.0 0.0 0.00 0.00 0.00 61 1014.3
20260506081030 52 0 0.0 0.0 0.00 0.00 0.00 62 1014.4
20260506080532 52 0 0.0 0.0 0.00 0.00 0.00 63 1014.3
20260506073030 52 147 0.0 3.0 0.00 0.00 0.00 57 1014.2
20260506072530 52 0 0.0 3.0 0.00 0.00 0.00 57 1014.2
20260506072032 52 212 0.0 3.0 0.00 0.00 0.00 57 1014.1
20260506071530 52 198 1.0 3.0 0.00 0.00 0.00 58 1014.1
20260506071031 52 221 0.0 3.0 0.00 0.00 0.00 58 1014.1
20260506070530 52 211 0.0 3.0 0.00 0.00 0.00 58 1014.0
20260506062031 52 0 1.0 1.0 0.00 0.00 0.00 62 1014.0
20260506061530 52 0 0.0 0.0 0.00 0.00 0.00 63 1013.8
20260506061031 52 0 0.0 2.0 0.00 0.00 0.00 64 1013.8
20260506060530 52 0 0.0 2.0 0.00 0.00 0.00 64 1013.8
20260506051032 53 240 0.0 3.0 0.00 0.00 0.00 62 1013.7
20260506050532 54 0 2.0 2.0 0.00 0.00 0.00 62 1013.7
20260506045030 54 0 0.0 0.0 0.00 0.00 0.00 63 1013.6
20260506044530 54 0 0.0 0.0 0.00 0.00 0.00 63 1013.6
20260506044031 54 0 0.0 0.0 0.00 0.00 0.00 62 1013.6
20260506043530 54 0 0.0 0.0 0.00 0.00 0.00 62 1013.5
20260506043030 54 0 0.0 0.0 0.00 0.00 0.00 63 1013.5
20260506042530 54 0 0.0 0.0 0.00 0.00 0.00 63 1013.5
20260506042031 54 0 0.0 0.0 0.00 0.00 0.00 62 1013.4
20260506041530 54 0 0.0 0.0 0.00 0.00 0.00 62 1013.3
20260506041030 54 0 0.0 0.0 0.00 0.00 0.00 62 1013.3
20260506040532 54 0 0.0 0.0 0.00 0.00 0.00 61 1013.3
20260506040030 55 0 0.0 0.0 0.00 0.00 0.00 61 1013.3
20260506035530 55 0 0.0 0.0 0.00 0.00 0.00 60 1013.3
20260506035031 55 0 0.0 0.0 0.00 0.00 0.00 61 1013.1
20260506034531 55 0 0.0 0.0 0.00 0.00 0.00 65 1013.1
20260506034030 55 0 0.0 0.0 0.00 0.00 0.00 63 1013.0
20260506033530 55 0 0.0 0.0 0.00 0.00 0.00 63 1013.0
20260506033032 55 0 0.0 0.0 0.00 0.00 0.00 62 1012.8
20260506032531 55 0 0.0 0.0 0.00 0.00 0.00 62 1012.8
20260506032030 55 0 0.0 0.0 0.00 0.00 0.00 62 1012.7
20260506031530 55 0 0.0 0.0 0.00 0.00 0.00 61 1012.6
20260506031033 55 0 0.0 0.0 0.00 0.00 0.00 62 1012.6
20260506030530 56 0 0.0 0.0 0.00 0.00 0.00 61 1012.6
20260506030030 56 0 0.0 0.0 0.00 0.00 0.00 1 1012.6
20260506025530 56 0 0.0 0.0 0.00 0.00 0.00 60 1012.5
20260506025031 56 0 0.0 0.0 0.00 0.00 0.00 59 1012.6
20260506024530 56 0 0.0 0.0 0.00 0.00 0.00 60 1012.6
20260506024030 57 0 0.0 0.0 0.00 0.00 0.00 59 1012.5
20260506023530 57 0 0.0 0.0 0.00 0.00 0.00 58 1012.5
20260506023030 57 0 0.0 0.0 0.00 0.00 0.00 58 1012.6
20260506022530 57 0 0.0 0.0 0.00 0.00 0.00 57 1012.6
20260506022030 57 0 0.0 0.0 0.00 0.00 0.00 56 1012.5
20260506021530 58 0 0.0 0.0 0.00 0.00 0.00 56 1012.5
20260506021031 58 0 0.0 0.0 0.00 0.00 0.00 57 1012.5
20260506020530 58 0 0.0 0.0 0.00 0.00 0.00 57 1012.5
20260506020031 58 0 0.0 0.0 0.00 0.00 0.00 57 1012.5
20260506015530 58 0 0.0 0.0 0.00 0.00 0.00 57 1012.5
20260506015032 58 0 0.0 0.0 0.00 0.00 0.00 57 1012.5
20260506014530 58 0 0.0 0.0 0.00 0.00 0.00 57 1012.5
20260506014030 57 0 0.0 0.0 0.00 0.00 0.00 57 1012.5
20260506013530 57 0 0.0 0.0 0.00 0.00 0.00 58 1012.4
20260506013031 57 0 0.0 0.0 0.00 0.00 0.00 58 1012.4
20260506012530 56 0 0.0 0.0 0.00 0.00 0.00 58 1012.4
20260506012031 56 0 0.0 0.0 0.00 0.00 0.00 59 1012.4
20260506011530 55 0 0.0 0.0 0.00 0.00 0.00 59 1012.4
20260506011030 55 0 0.0 0.0 0.00 0.00 0.00 59 1012.5
20260506010530 55 0 0.0 0.0 0.00 0.00 0.00 59 1012.5
20260506010030 55 0 0.0 0.0 0.00 0.00 0.00 59 1012.4
20260506005530 55 0 0.0 0.0 0.00 0.00 0.00 59 1012.4
20260506005030 55 0 0.0 0.0 0.00 0.00 0.00 59 1012.5
20260506004530 55 0 0.0 0.0 0.00 0.00 0.00 58 1012.4
20260506004030 55 0 0.0 0.0 0.00 0.00 0.00 59 1012.4
20260506003529 55 0 0.0 0.0 0.00 0.00 0.00 59 1012.5
20260506003031 55 0 0.0 0.0 0.00 0.00 0.00 59 1012.5
20260506002529 55 0 0.0 0.0 0.00 0.00 0.00 58 1012.5
20260506002030 56 0 0.0 0.0 0.00 0.00 0.00 57 1012.5
20260506001530 56 0 0.0 0.0 0.00 0.00 0.00 57 1012.5
20260506001030 56 0 0.0 0.0 0.00 0.00 0.00 57 1012.5
20260506000529 56 0 0.0 0.0 0.00 0.00 0.00 57 1012.5
20260506000031 56 0 0.0 0.0 0.00 0.00 0.00 57 1012.6
20260505235529 56 0 0.0 0.0 0.00 0.00 0.00 56 1012.6
20260505235030 57 0 0.0 0.0 0.00 0.00 0.00 56 1012.6
20260505234529 57 0 0.0 0.0 0.00 0.00 0.00 56 1012.6
20260505234029 57 0 0.0 0.0 0.00 0.00 0.00 56 1012.6
20260505233529 56 0 0.0 0.0 0.00 0.00 0.00 56 1012.6
20260505233030 56 0 0.0 0.0 0.00 0.00 0.00 56 1012.7
20260505232530 57 0 0.0 0.0 0.00 0.00 0.00 55 1012.7
20260505232031 57 0 0.0 0.0 0.00 0.00 0.00 55 1012.7
20260505231530 57 0 0.0 0.0 0.00 0.00 0.00 56 1012.8
20260505231031 57 0 0.0 0.0 0.00 0.00 0.00 55 1012.8
20260505230529 57 0 0.0 0.0 0.00 0.00 0.00 55 1012.8
20260505230031 57 0 0.0 0.0 0.00 0.00 0.00 54 1013.0
20260505225529 57 0 0.0 0.0 0.00 0.00 0.00 54 1013.0
20260505225032 57 0 0.0 0.0 0.00 0.00 0.00 54 1013.0
20260505224533 57 0 0.0 0.0 0.00 0.00 0.00 54 1013.0
20260505224030 57 0 0.0 0.0 0.00 0.00 0.00 53 1013.1
20260505223529 57 0 0.0 0.0 0.00 0.00 0.00 54 1013.0
20260505223031 57 0 0.0 0.0 0.00 0.00 0.00 53 1013.1
20260505222529 57 0 0.0 0.0 0.00 0.00 0.00 53 1013.0
20260505222029 57 0 0.0 0.0 0.00 0.00 0.00 54 1013.1
20260505221529 57 0 0.0 0.0 0.00 0.00 0.00 54 1013.0
20260505221033 58 0 0.0 0.0 0.00 0.00 0.00 53 1013.0
20260505220529 57 0 0.0 0.0 0.00 0.00 0.00 55 1013.0
20260505220030 57 0 0.0 0.0 0.00 0.00 0.00 55 1013.0
20260505215529 57 0 0.0 0.0 0.00 0.00 0.00 55 1013.0
20260505215030 57 0 0.0 0.0 0.00 0.00 0.00 54 1013.0
20260505214529 57 0 0.0 0.0 0.00 0.00 0.00 55 1013.1
20260505214030 56 0 0.0 0.0 0.00 0.00 0.00 54 1013.2
20260505213529 57 0 0.0 0.0 0.00 0.00 0.00 54 1013.2
20260505213029 57 0 0.0 0.0 0.00 0.00 0.00 53 1013.1
20260505212529 57 0 0.0 0.0 0.00 0.00 0.00 52 1013.1
20260505212033 57 0 0.0 0.0 0.00 0.00 0.00 52 1013.0
20260505211529 58 0 0.0 0.0 0.00 0.00 0.00 52 1013.1
20260505211032 58 0 0.0 0.0 0.00 0.00 0.00 53 1013.0
20260505210531 58 0 0.0 0.0 0.00 0.00 0.00 53 1013.0
20260505210030 57 0 0.0 0.0 0.00 0.00 0.00 54 1013.0
20260505205529 57 0 0.0 0.0 0.00 0.00 0.00 54 1013.1
20260505205033 57 0 0.0 0.0 0.00 0.00 0.00 53 1013.1
20260505204529 57 0 0.0 0.0 0.00 0.00 0.00 54 1013.1
20260505204032 57 0 0.0 0.0 0.00 0.00 0.00 53 1013.1
20260505203529 57 0 0.0 0.0 0.00 0.00 0.00 54 1013.0
20260505203031 57 0 0.0 0.0 0.00 0.00 0.00 54 1013.1
20260505202529 57 0 0.0 0.0 0.00 0.00 0.00 55 1013.1
20260505202030 57 0 0.0 0.0 0.00 0.00 0.00 56 1013.1
20260505201529 56 0 0.0 0.0 0.00 0.00 0.00 57 1013.1
20260505201029 56 0 0.0 0.0 0.00 0.00 0.00 56 1013.1
20260505200534 56 0 0.0 0.0 0.00 0.00 0.00 56 1013.1
20260505200029 56 0 0.0 0.0 0.00 0.00 0.00 55 1013.1
20260505195530 56 0 0.0 0.0 0.00 0.00 0.00 56 1013.1
20260505195030 56 0 0.0 0.0 0.00 0.00 0.00 57 1013.1
20260505194529 56 0 0.0 0.0 0.00 0.00 0.00 57 1013.1
20260505194031 56 0 0.0 0.0 0.00 0.00 0.00 57 1013.0
20260505193529 56 0 0.0 0.0 0.00 0.00 0.00 58 1013.0
20260505193030 56 0 0.0 0.0 0.00 0.00 0.00 57 1012.8
20260505192529 56 0 0.0 0.0 0.00 0.00 0.00 57 1013.0
20260505192032 55 0 0.0 0.0 0.00 0.00 0.00 58 1013.0
20260505191529 55 0 0.0 0.0 0.00 0.00 0.00 58 1012.8
20260505191029 55 0 0.0 0.0 0.00 0.00 0.00 58 1013.0
20260505190529 55 0 0.0 0.0 0.00 0.00 0.00 59 1013.0
20260505190029 55 0 0.0 0.0 0.00 0.00 0.00 58 1013.0
20260505185529 55 0 0.0 0.0 0.00 0.00 0.00 59 1013.0
20260505185029 55 0 0.0 0.0 0.00 0.00 0.00 59 1012.8
20260505184530 55 0 0.0 0.0 0.00 0.00 0.00 59 1012.8
20260505184031 55 0 0.0 0.0 0.00 0.00 0.00 60 1012.8
20260505183645 55 0 0.0 0.0 0.00 0.00 0.00 60 1012.8
20260505183529 55 0 0.0 0.0 0.00 0.00 0.00 60 1012.8
20260505183032 55 0 0.0 0.0 0.00 0.00 0.00 60 1012.7
20260505182529 54 0 0.0 0.0 0.00 0.00 0.00 60 1012.6
20260505182030 54 0 0.0 0.0 0.00 0.00 0.00 60 1012.6
20260505181529 54 0 0.0 0.0 0.00 0.00 0.00 60 1012.6
20260505181029 54 0 0.0 0.0 0.00 0.00 0.00 61 1012.5
20260505180529 54 0 0.0 0.0 0.00 0.00 0.00 1 1012.4
20260505180029 54 0 0.0 0.0 0.00 0.00 0.00 62 1012.4
20260505175529 54 0 0.0 0.0 0.00 0.00 0.00 61 1012.5
20260505175031 54 0 0.0 0.0 0.00 0.00 0.00 60 1012.5
20260505174530 54 0 0.0 0.0 0.00 0.00 0.00 62 1012.5
20260505174030 54 0 0.0 0.0 0.00 0.00 0.00 62 1012.4
20260505173529 53 0 0.0 0.0 0.00 0.00 0.00 61 1012.3
20260505173030 53 0 0.0 0.0 0.00 0.00 0.00 62 1012.3
20260505172528 53 0 0.0 0.0 0.00 0.00 0.00 62 1012.2
20260505172030 53 0 0.0 0.0 0.00 0.00 0.00 62 1012.2
20260505171529 53 0 0.0 0.0 0.00 0.00 0.00 63 1012.2
20260505171029 53 0 0.0 0.0 0.00 0.00 0.00 64 1011.9
20260505170529 53 0 0.0 0.0 0.00 0.00 0.00 64 1012.1
20260505170030 52 0 0.0 0.0 0.00 0.00 0.00 65 1012.1
20260505165530 52 0 0.0 0.0 0.00 0.00 0.00 65 1011.9
20260505165029 52 0 0.0 0.0 0.00 0.00 0.00 66 1011.9
20260505164529 52 0 0.0 0.0 0.00 0.00 0.00 65 1012.1
20260505164029 52 0 0.0 0.0 0.00 0.00 0.00 65 1011.9
20260505163530 52 0 0.0 0.0 0.00 0.00 0.00 66 1011.9
20260505163029 52 0 0.0 0.0 0.00 0.00 0.00 66 1011.8
20260505162529 52 0 0.0 0.0 0.00 0.00 0.00 67 1011.8
20260505162029 52 0 0.0 0.0 0.00 0.00 0.00 66 1011.7
20260505161529 52 0 0.0 0.0 0.00 0.00 0.00 68 1011.6
20260505161030 52 0 0.0 0.0 0.00 0.00 0.00 68 1011.6
20260505160528 52 0 0.0 0.0 0.00 0.00 0.00 67 1011.6
20260505153028 50 0 0.0 0.0 0.00 0.00 0.00 70 1011.6
20260505152529 50 0 0.0 0.0 0.00 0.00 0.00 70 1011.6
20260505152028 50 0 0.0 0.0 0.00 0.00 0.00 70 1011.5
20260505151528 49 0 0.0 0.0 0.00 0.00 0.00 70 1011.5
20260505151028 49 0 0.0 0.0 0.00 0.00 0.00 71 1011.4
20260505150530 49 0 0.0 0.0 0.00 0.00 0.00 72 1011.4
20260505140531 46 224 0.0 3.0 0.00 0.00 0.00 74 1011.1
20260505125028 46 0 0.0 0.0 0.00 0.00 0.00 71 1010.5
20260505124530 46 0 0.0 0.0 0.00 0.00 0.00 70 1010.5
20260505124029 46 0 0.0 0.0 0.00 0.00 0.00 69 1010.4
20260505123528 46 0 0.0 0.0 0.00 0.00 0.00 70 1010.4
20260505123029 46 0 0.0 0.0 0.00 0.00 0.00 69 1010.4
20260505122532 46 0 0.0 0.0 0.00 0.00 0.00 70 1010.3
20260505122028 46 0 0.0 4.0 0.00 0.00 0.00 70 1010.3
20260505121528 46 0 0.0 4.0 0.00 0.00 0.00 70 1010.3
20260505121028 46 229 0.0 4.0 0.00 0.00 0.00 69 1010.3
20260505120528 46 0 0.0 2.0 0.00 0.00 0.00 69 1010.4
20260505120029 46 0 0.0 0.0 0.00 0.00 0.00 69 1010.3
20260505115528 46 0 0.0 4.0 0.00 0.00 0.00 69 1010.3
20260505115028 46 260 0.0 4.0 0.00 0.00 0.00 69 1010.3
20260505114528 46 266 0.0 4.0 0.00 0.00 0.00 68 1010.3
20260505114029 46 246 2.0 4.0 0.00 0.00 0.00 67 1010.4